STARLINK-1390 (45550 NORAD) Tracking and Keplerian Element Data

This shows tracking and keplerian element data for the satellite.

Feedback or suggestion? Click here.




ElementValue
Catalog45550
NameSTARLINK-1390
Epoch Orbit627
Epoch Day149.41668981
Epoch Year2020
RAAN225.8456
Inclination52.9973
Eccentricity0.0001796
Argument of Perigee135.2738
Mean Anonmoly17.1321
Mean Motion15.32138519
Decay Rate0.02972753
L11 45550U 20025V 20149.41668981 .02972753 00000-0 84712-1 0 9995
L22 45550 52.9973 225.8456 0001796 135.2738 17.1321 15.32138519 6278

Live tracking and technical data element details for STARLINK-1390 (NORAD 45550). STARLINK-1390 can be tracked NOW for your location showing map with azimuth and elevation plus other details from your city location.

Track the satellite on the map from your city or location and see movement details for azimuth, elevation, latitude, longitude, range, height, and movement on the map or in text.







IsCatalogInMostPopularTable: catalog: 45550, numindb: 6
Update: records affected: 1



GetName: 45550 STARLINK-1390

Hit Count: updated at: Sat, 30 May 2020 15:09:17 GMT